Tracking 30995 objects as of 6-Jul-2025
HD Live streaming from Space Station
objects crossing your sky now

STARLINK-32847

Track STARLINK-32847 now!
10-day predictions
STARLINK-32847 is classified as:


NORAD ID: 62811
Int'l Code: 2025-018F
Perigee: 481.7 km
Apogee: 483.0 km
Inclination: 53.2 °
Period: 94.1 minutes
Semi major axis: 6853 km
RCS: Unknown
Launch date: January 24, 2025
Source: United States (US)
Launch site: AIR FORCE WESTERN TEST RANGE (AFWTR)
Your satellite tracking list
FENGYUN 1C DEB
Track 1 satellite(s)




NASA's NSSDC Master Catalog

Two Line Element Set (TLE):
1 62811U 25018F   25187.52898617  .00028478  00000-0  96969-3 0  9994
2 62811  53.1588  12.7371 0000929  95.7982 264.3124 15.30209061 25489
Source of the keplerian elements: AFSPC